Regional Weather Roundup
Issued by NWS

Home | Current Version | Previous Version | Graphics & Text | Print | Product List | Glossary Off
Versions: 1 2 3 4 5 6 7 8 9 10 11 12 13 14 15 16 17 18 19 20 21 22 23 24 25 26 27 28 29 30 31 32 33 34 35 36 37 38 39 40 41 42 43 44 45 46 47 48 49 50

000
ASUS43 KFSD 190110
RWRSD

WEATHER ROUNDUP FOR SOUTH DAKOTA
NATIONAL WEATHER SERVICE SIOUX FALLS SD
700 PM CST THU DEC 18 2014

NOTE: "FAIR" INDICATES FEW OR NO CLOUDS BELOW 12,000 FEET WITH NO
SIGNIFICANT WEATHER AND/OR OBSTRUCTIONS TO VISIBILITY.


SDZ001>005-009-010-012>017-190200-
NORTHWEST AND NORTH CENTRAL SOUTH DAKOTA

CITY           SKY/WX    TMP DP  RH WIND       PRES   REMARKS
BUFFALO          N/A     33  24  69 SW7       29.90S WCI  27
FAITH            N/A     24  19  81 S14       30.00S WCI  12
MOBRIDGE       CLOUDY    28  25  88 S8        30.02S WCI  20
$$

SDZ012>016-024>037-041>051-057-063-072>074-190200-
SOUTHWEST AND SOUTH CENTRAL SOUTH DAKOTA

CITY           SKY/WX    TMP DP  RH WIND       PRES   REMARKS
RAPID CTY ARPT CLEAR     27  22  81 CALM      30.00R
PIERRE         CLOUDY    28  24  85 S6        30.06S WCI  22
CUSTER         CLEAR     28  17  63 W3        29.98R
ELLSWORTH AFB  CLEAR     28  24  85 CALM      29.99S
PHILIP         CLEAR     22  18  85 CALM      30.04S
PINE RIDGE     CLEAR     25  19  78 CALM      30.03R
SPEARFISH      FAIR      32  19  59 W8        29.99S WCI  25
WINNER         CLOUDY    25  22  88 S8        30.08S WCI  16
$$

SDZ004>011-016>023-039-040-190200-
NORTHEAST SOUTH DAKOTA

CITY           SKY/WX    TMP DP  RH WIND       PRES   REMARKS
ABERDEEN       CLOUDY    26  22  84 S9        30.13S WCI  17
WATERTOWN      CLOUDY    23  21  92 S8        30.12S WCI  14
SISSETON         N/A     20  18  92 S10       30.17S WCI   9
$$

SDZ017-020-022-023-036>040-048>070-190200-
SOUTHEAST SOUTH DAKOTA

CITY           SKY/WX    TMP DP  RH WIND       PRES   REMARKS
SIOUX FALLS    CLOUDY    27  23  85 S7        30.18R WCI  19
HURON          CLOUDY    26  23  88 S7        30.14S WCI  18
CHAMBERLAIN    CLOUDY    27  25  93 CALM      30.10S
MITCHELL       CLOUDY    27  24  89 SE8       30.16S WCI  19
YANKTON        CLOUDY    28  23  80 S3        30.20R
$$

ABBREVIATIONS USED IN REMARKS
   TC - TEMPERATURE IN CELSIUS
  WCI - WIND CHILL INDEX
   HX - HEAT INDEX
  VSB - VISIBILITY



USA.gov is the U.S. government's official web portal to all federal, state and local government web resources and services.